TITAN 3C TRANSTAGE DEB, 26527

Orbit data source: Space-Track

TITAN 3C TRANSTAGE DEB, 26527 is space debris in HEO originally from a launch on Tue, 21 Dec 1965 UTC launched from the Air Force Eastern Test Range (AFETR). Debris objects in space refer to the collection of defunct objects orbiting the Earth. Examples of debris include non-operational satellites, rocket bodies, and fragments generated from explosions, collisions, or faulty payload assembly.

Loading next visibility...
Identifier
26527, 1965-108AN
Orbit
HEO
Last TLE update
3 months ago
Origin
Manufacturer
Unknown
Mission
Spacecraft
Bus & Motor
Unknown
Mass
Unknown
Launch date (UTC)
1965-12-21 (60 years ago)
Launch vehicle
Unknown
Launch site
Air Force Eastern Test Range (AFETR)
Object type
Payload
Rocket body
Debris
Shape & HBR
Unknown
Radar Cross Section
Small (<0.1 m²)

Expand to show TLE details & history

TLE from 3 months ago
0 TITAN 3C TRANSTAGE DEB
1 26527U 65108AN  25080.34198972  .00000167  00000-0  48222-2 0  9994
2 26527  26.7272 132.7655 6755729 217.5552 156.4621  2.71379379257509
Epoch: 2025-03-21T08:12Z
TLE epoch observation values (Epoch: 2025-03-21T08:12:27.911Z)
Latitude
13.52634°
Longitude
-140.92447°
Altitude
29,561.204 km
Speed
1.956 km/s
True Right ascension
10h 45m 10s
True Declination
13° 30' 39"
Sunlit
Object was in daylight at epoch
Visualization orbit readout
Latitude
24.17303°
Longitude
-95.1604°
Altitude
29,648.502 km
Speed
1.941 km/s
Apparent Right ascension
13h 23m 55s
Apparent Declination
16° 26' 44"
Sunlit
Object is in daylight
Visualization observer readout
Local Sidereal Time
22:22:48
Azimuth
313.656° NW
Elevation
-19.632°
Doppler factor
1
Orbital elements
Apogee altitude
30,006.502 km
Perigee altitude
666.715 km
Semi-major axis
21,714.745 km
Eccentricity
0.67557
Inclination
26.7272°
RAAN
132.7655°
Arg. of periapsis
217.5552°
True anomaly
Unknown
Mean anomaly
156.4621°
Eccentric anomaly
Unknown
Mean motion
0.67828 °/min
Orbital period
530.75 mins
BSTAR
0.0048222
Loading maneuver chart data...
Loading SW <> Apogee altitude chart data...

TITAN 3C TRANSTAGE DEB Visibility forecast

Observer location: undefined°, undefined°

Span
Click to sort rows by Start time (UTC) header in descending order
Start Az.
Max El. time (UTC)
Max El. Az.
Max El.
End time (UTC)
End Az.
462 mins2025-07-02 00:08:19.047Z258.968° W2025-07-02 02:25:19.047Z249.945° W39.862°2025-07-02 07:50:19.047Z190.237° SSW
|